EW5385 Brisbane AU current weather conditions

sailwx.info

Wind from 278 at 2 knots gusting 14

Air temperature 16.1° C
Dewpoint 5.1° C

Last reported at 2020-Jul-14 04:00 UTC.
Time now 2020-Jul-14 04:24 UTC

Location: S 27°36' E 153°04'.
View on Google Maps.

See reports from other nearby stations

  
Tides and Currents Weather Stations Pressure Air Temp Water Temp Dewpoint Dewpoint Depression Visibility Wind Speed Wind Dir Waves Ship Positions
date/time (UTC)wind fromknots sea level pressurealtimeterstation pressurevisibilityair tempwater tempwave heightnotes
2020-Jul-14 04:00 278 2 gusting 14 16.1
2020-Jul-14 03:31 285 11 gusting 21 15.6
2020-Jul-14 03:01 271 8 gusting 21 15.6
2020-Jul-14 02:45 300 6 gusting 19 15.6
2020-Jul-14 02:15 255 10 gusting 18 15.0
2020-Jul-14 02:02 280 6 gusting 19 15.0
2020-Jul-14 01:30 244 7 gusting 15 14.4
2020-Jul-14 01:01 235 6 gusting 14 13.9
2020-Jul-14 00:30 252 7 gusting 17 13.3
2020-Jul-14 00:15 241 6 gusting 16 13.3
2020-Jul-14 00:01 257 6 gusting 13 12.8
2020-Jul-13 23:52 217 6 gusting 17 12.2
2020-Jul-13 23:01 279 6 gusting 12 10.6
2020-Jul-13 22:46 264 6 gusting 13 10.6
2020-Jul-13 22:31 308 6 gusting 17 10.0
2020-Jul-13 22:15 318 6 gusting 12 10.0
2020-Jul-13 21:46 298 5 gusting 9 8.9
2020-Jul-13 21:31 264 4 gusting 10 8.9
2020-Jul-13 21:15 282 3 gusting 8 8.3
2020-Jul-13 21:00 290 2 gusting 6 8.3
2020-Jul-13 20:46 276 3 gusting 12 8.3
2020-Jul-13 20:31 267 5 gusting 10 8.3
2020-Jul-13 20:15 271 2 gusting 12 8.3
2020-Jul-13 20:01 277 3 gusting 9 8.3
2020-Jul-13 19:45 257 4 gusting 12 8.3
2020-Jul-13 19:30 269 5 gusting 11 8.3
2020-Jul-13 19:15 285 3 gusting 9 8.3
2020-Jul-13 19:01 311 4 gusting 13 8.9
2020-Jul-13 18:45 287 6 gusting 13 8.9
2020-Jul-13 18:30 265 2 gusting 13 8.9
2020-Jul-13 18:15 263 3 gusting 12 8.9
2020-Jul-13 18:00 261 4 gusting 9 8.9
2020-Jul-13 17:45 281 4 gusting 9 9.4
2020-Jul-13 17:30 298 3 gusting 10 9.4
2020-Jul-13 17:15 261 2 gusting 6 8.9
2020-Jul-13 16:47 273 1 gusting 6 8.9
2020-Jul-13 16:32 268 0 gusting 5 8.9
2020-Jul-13 16:17 266 0 gusting 6 9.4
2020-Jul-13 16:01 287 2 gusting 6 8.9
2020-Jul-13 15:46 226 0 gusting 3 8.9
2020-Jul-13 15:31 219 1 gusting 4 9.4
2020-Jul-13 15:17 214 0 gusting 5 10.0
2020-Jul-13 15:01 219 2 gusting 6 9.4
2020-Jul-13 14:46 213 1 gusting 5 10.0
2020-Jul-13 14:30 222 1 gusting 6 10.6
2020-Jul-13 14:15 261 2 gusting 7 10.6
2020-Jul-13 14:01 302 1 gusting 7 10.0
2020-Jul-13 13:45 278 1 gusting 4 10.0
2020-Jul-13 13:30 221 1 gusting 3 10.0
2020-Jul-13 13:15 238 10.0
2020-Jul-13 13:00 285 10.6
2020-Jul-13 12:45 247 0 gusting 2 10.6
2020-Jul-13 12:30 247 11.1
2020-Jul-13 12:15 246 1 gusting 5 11.1
2020-Jul-13 12:00 280 1 gusting 5 11.7
2020-Jul-13 11:45 272 0 gusting 4 11.7
2020-Jul-13 11:30 247 2 gusting 5 11.7
2020-Jul-13 11:17 229 2 gusting 6 12.2
2020-Jul-13 11:01 243 2 gusting 6 12.2
2020-Jul-13 10:47 245 2 gusting 5 12.2
2020-Jul-13 10:31 233 1 gusting 5 12.2
2020-Jul-13 10:17 277 0 gusting 3 12.8
2020-Jul-13 10:02 298 0 gusting 3 12.8
2020-Jul-13 09:46 252 13.3
2020-Jul-13 09:31 301 13.9
2020-Jul-13 09:16 268 13.9
2020-Jul-13 09:01 268 0 gusting 2 13.9
2020-Jul-13 08:46 243 14.4
2020-Jul-13 08:31 228 14.4
2020-Jul-13 08:18 266 15.0
2020-Jul-13 08:01 236 15.0
2020-Jul-13 07:46 278 0 gusting 2 15.6
2020-Jul-13 07:31 261 0 gusting 5 16.1
2020-Jul-13 07:16 295 3 gusting 10 16.7
2020-Jul-13 07:01 248 3 gusting 7 17.2
2020-Jul-13 06:46 254 5 gusting 13 17.8
2020-Jul-13 06:31 245 5 gusting 12 18.3
2020-Jul-13 06:16 245 5 gusting 10 18.9
2020-Jul-13 06:00 235 6 gusting 14 18.3
2020-Jul-13 05:45 287 3 gusting 12 18.9
2020-Jul-13 05:31 328 1 gusting 8 18.3
2020-Jul-13 05:16 221 7 gusting 15 18.9
2020-Jul-13 05:00 266 6 gusting 11 19.4
2020-Jul-13 04:46 279 4 gusting 10 19.4
2020-Jul-13 04:30 269 8 gusting 13 18.9
2020-Jul-13 04:15 235 2 gusting 13 18.9
2020-Jul-13 03:45 247 1 gusting 11 19.4
2020-Jul-13 03:30 288 3 gusting 10 18.9
2020-Jul-13 03:15 269 3 gusting 10 18.3
2020-Jul-13 03:00 280 3 gusting 12 18.9
2020-Jul-13 02:45 266 4 gusting 10 18.9
2020-Jul-13 02:30 239 6 gusting 11 18.9
2020-Jul-13 02:15 238 3 gusting 13 18.9
2020-Jul-13 02:00 280 3 gusting 11 18.9
2020-Jul-13 01:45 236 2 gusting 9 18.3
2020-Jul-13 01:30 274 3 gusting 8 17.8
2020-Jul-13 01:16 250 3 gusting 7 17.2
2020-Jul-13 01:02 235 3 gusting 6 16.7
2020-Jul-13 00:46 248 3 gusting 6 16.7
2020-Jul-13 00:31 283 1 gusting 8 15.6
2020-Jul-13 00:16 218 3 gusting 6 15.0
2020-Jul-13 00:00 243 3 gusting 7 14.4
2020-Jul-12 23:46 246 1 gusting 7 14.4
2020-Jul-12 23:31 236 1 gusting 6 13.9
2020-Jul-12 23:16 256 3 gusting 6 13.9
2020-Jul-12 23:01 268 2 gusting 8 13.3
2020-Jul-12 22:46 249 2 gusting 6 13.3
2020-Jul-12 22:31 267 3 gusting 7 13.3
2020-Jul-12 22:16 241 3 gusting 8 13.3
2020-Jul-12 22:01 226 2 gusting 6 13.3
2020-Jul-12 21:45 259 2 gusting 6 13.3
2020-Jul-12 21:30 246 2 gusting 6 13.3
2020-Jul-12 21:15 250 2 gusting 6 13.3
2020-Jul-12 21:00 258 1 gusting 4 13.9
2020-Jul-12 20:45 250 0 gusting 4 13.9
2020-Jul-12 20:30 278 1 gusting 6 13.9
2020-Jul-12 20:15 255 13.9
2020-Jul-12 19:45 255 0 gusting 5 13.9
2020-Jul-12 19:30 242 0 gusting 6 13.9
2020-Jul-12 19:15 247 2 gusting 6 13.9
2020-Jul-12 19:00 223 2 gusting 6 13.9
2020-Jul-12 18:45 243 1 gusting 5 13.9
2020-Jul-12 18:30 246 3 gusting 6 13.9
2020-Jul-12 18:15 247 1 gusting 6 13.9
2020-Jul-12 18:00 259 0 gusting 6 13.9
2020-Jul-12 17:45 255 0 gusting 5 13.9
2020-Jul-12 17:33 268 1 gusting 6 13.9
2020-Jul-12 17:17 306 1 gusting 5 13.9
2020-Jul-12 17:01 269 1 gusting 5 13.9
2020-Jul-12 16:47 270 13.9
2020-Jul-12 16:31 283 0 gusting 2 13.9
2020-Jul-12 16:17 287 13.9
2020-Jul-12 16:02 252 13.9
2020-Jul-12 15:47 238 0 gusting 2 13.9
2020-Jul-12 15:32 271 13.9
2020-Jul-12 15:16 223 13.9
2020-Jul-12 15:01 223 13.9
2020-Jul-12 14:45 224 14.4
2020-Jul-12 14:31 313 14.4
2020-Jul-12 14:16 313 14.4
2020-Jul-12 14:02 313 14.4
2020-Jul-12 13:46 335 14.4
2020-Jul-12 13:31 290 14.4
2020-Jul-12 13:16 290 14.4
2020-Jul-12 13:01 264 14.4
2020-Jul-12 12:46 259 14.4
2020-Jul-12 12:31 255 15.0
2020-Jul-12 12:16 280 15.0
2020-Jul-12 12:00 231 15.0
2020-Jul-12 11:46 231 15.0
2020-Jul-12 11:30 231 15.0
2020-Jul-12 11:15 231 15.0
2020-Jul-12 11:01 231 15.0
2020-Jul-12 10:46 231 0 gusting 1 15.0
2020-Jul-12 10:31 231 15.0
2020-Jul-12 10:15 231 15.0
2020-Jul-12 10:00 235 15.0
2020-Jul-12 09:46 225 0 gusting 3 15.0
2020-Jul-12 09:31 223 2 gusting 5 15.0
2020-Jul-12 09:15 205 15.6
2020-Jul-12 09:01 182 15.6
2020-Jul-12 08:45 221 0 gusting 2 15.6
2020-Jul-12 08:31 297 15.6
2020-Jul-12 08:15 297 15.6
2020-Jul-12 08:01 297 15.6
2020-Jul-12 07:45 269 0 gusting 2 15.6
2020-Jul-12 07:31 286 15.6
2020-Jul-12 07:15 260 0 gusting 2 16.1
2020-Jul-12 07:00 263 0 gusting 2 16.1
2020-Jul-12 06:46 259 16.1
2020-Jul-12 06:31 323 0 gusting 4 16.7
2020-Jul-12 06:16 237 0 gusting 3 16.7
2020-Jul-12 06:01 276 2 gusting 6 16.7
2020-Jul-12 05:45 250 1 gusting 7 16.7
2020-Jul-12 05:30 242 2 gusting 6 17.2
2020-Jul-12 05:15 237 4 gusting 7 17.2
2020-Jul-12 05:00 245 1 gusting 5 17.8
2020-Jul-12 04:45 218 0 gusting 5 17.8
2020-Jul-12 04:30 280 0 gusting 7 17.8
2020-Jul-12 04:15 213 2 gusting 6 17.8
2020-Jul-12 04:00 263 4 gusting 9 18.3